Regional Weather Roundup
Issued by NWS

Home | Current Version | Previous Version | Graphics & Text | Print | Product List | Glossary On
Versions: 1 2 3 4 5 6 7 8 9 10 11 12 13 14 15 16 17 18 19 20 21 22 23 24 25 26 27 28 29 30 31 32 33 34 35 36 37 38 39 40 41 42 43 44 45 46 47 48 49 50
000
ASUS43 KMKX 022359
RWRWI

WISCONSIN REGIONAL WEATHER ROUNDUP
NATIONAL WEATHER SERVICE MILWAUKEE/SULLIVAN WI
600 PM CST MON MAR 02 2015

NOTE: "FAIR" INDICATES FEW OR NO CLOUDS BELOW 12,000 FEET WITH NO
SIGNIFICANT WEATHER AND/OR OBSTRUCTIONS TO VISIBILITY.

WIZ001-002-006>008-014>016-023>028-030100-
NORTHWEST WISCONSIN

CITY           SKY/WX    TMP DP  RH WIND       PRES   REMARKS
SUPERIOR ARPT  CLEAR     26   6  43 SW13      30.19F WCI  15
ASHLAND        CLEAR     25   1  35 S6        30.20F WCI  18
6HR MIN TEMP:  24; 6HR MAX TEMP:  29;

HAYWARD        CLEAR     21   3  45 S12       30.20F WCI   9
6HR MIN TEMP:  21; 6HR MAX TEMP:  24; 6HR PCP: TRACE;

SIREN          CLEAR     23   6  48 S9        30.21F WCI  13
CUMBERLAND     FAIR      18   3  53 SE6       30.21F WCI   9
RICE LAKE      FAIR      22   5  49 S5        30.25F WCI  15
CHETEK         FAIR      22   6  51 SE5       30.24F WCI  16
LADYSMITH      PTCLDY    23   5  45 S6        30.26F WCI  16
EAU CLAIRE     NOT AVBL
MENOMONIE      PTCLDY    24   9  53 S3        30.26F
NEW RICHMOND   PTCLDY    22   8  54 S10       30.23F WCI  11
OSCEOLA        PTCLDY    23   6  49 SE10      30.25F WCI  12
$$

WIZ003>005-009-010-017-018-030100-
NORTH CENTRAL WISCONSIN

CITY           SKY/WX    TMP DP  RH WIND       PRES   REMARKS
MANITOWISH WTR CLEAR     22   1  39 SW8       30.18F WCI  12
ARBOR VITAE    CLEAR     24  -1  33 SW6       30.20F WCI  17
WOODRUFF       CLEAR     24  -1  33 SW6       30.20F WCI  17
RHINELANDER    CLEAR     22   4  46 S8        30.21F WCI  12
6HR MIN TEMP:  21; 6HR MAX TEMP:  26;

EAGLE RIVER    CLEAR     24  -3  30 S3        30.20F
LAND O LAKES   CLEAR     25  -1  32 S6        30.20F WCI  18
PHILLIPS       CLEAR     22   2  41 SW6       30.21F WCI  15
TOMAHAWK       CLEAR     21   4  46 CALM      30.24F
MEDFORD        CLEAR     19   4  52 SE3       30.23F
MERRILL        CLEAR     20   3  46 SW5       30.27F WCI  14
$$

WIZ029-030-035-036-043>047-030100-
CENTRAL WISCONSIN

CITY           SKY/WX    TMP DP  RH WIND       PRES   REMARKS
WAUSAU         CLEAR     21   0  39 CALM      30.24F
6HR MIN TEMP:  20; 6HR MAX TEMP:  26;

MOSINEE        CLEAR     21   0  39 SW3       30.27F
MARSHFIELD     PTCLDY    22   6  50 SE5       30.25F WCI  16
6HR MIN TEMP:  20; 6HR MAX TEMP:  27;

STEVENS POINT  PTCLDY    22   6  48 SE3       30.29F
WAUPACA        CLEAR     27   4  36 CALM      30.33F
WAUTOMA        NOT AVBL
WISC RAPIDS    PTCLDY    25   1  35 S5        30.29F WCI  19
6HR MIN TEMP:  22; 6HR MAX TEMP:  28;

CAMP DOUGLAS   NOT AVBL
$$

WIZ011>013-019>022-031-037>040-048>050-030100-
NORTHEAST WISCONSIN

CITY           SKY/WX    TMP DP  RH WIND       PRES   REMARKS
ANTIGO         CLEAR     17   3  55 SW6       30.25F WCI   8
SHAWANO        CLEAR     27   7  42 S3        30.32F
OCONTO         CLEAR     24  10  57 S5        30.33F WCI  18
STURGEON BAY   CLEAR     21  12  68 S6        30.35F WCI  14
6HR MIN TEMP:  21; 6HR MAX TEMP:  27;

GREEN BAY      CLEAR     24  13  62 S7        30.34F WCI  16
6HR MIN TEMP:  24; 6HR MAX TEMP:  27;

MANITOWOC      NOT AVBL
APPLETON       PTCLDY    21  10  63 S7        30.32F WCI  13
CLINTONVILLE   CLEAR     23   7  50 S3        30.32F
OSHKOSH        MOCLDY    22  13  68 S3        30.32F
6HR MIN TEMP:  22; 6HR MAX TEMP:  26;

$$

WIZ032>034-041-042-053>061-030100-
SOUTHWEST WISCONSIN

CITY           SKY/WX    TMP DP  RH WIND       PRES   REMARKS
LA CROSSE      CLOUDY    27  10  49 S7        30.28F WCI  19
6HR MIN TEMP:  24; 6HR MAX TEMP:  27;

SPARTA         CLOUDY    26   7  45 S3        30.30F
VIROQUA        CLOUDY    25  12  58 CALM      30.26F
BOSCOBEL       CLOUDY    27  13  55 VRB3      30.32F
6HR MIN TEMP:  25; 6HR MAX TEMP:  29;

PRAIRIE DU CHI CLOUDY    27  11  53 SE6       30.31F WCI  20
PLATTEVILLE    CLOUDY    23  15  71 E9        30.30F WCI  13
$$

WIZ056-057-062-063-064-067-068-030100-
SOUTH CENTRAL WISCONSIN

CITY           SKY/WX    TMP DP  RH WIND       PRES   REMARKS
REEDSBURG      CLOUDY    26   9  47 CALM      30.30F
BARABOO/DELLS  CLOUDY    26   9  48 CALM      30.29F
LONE ROCK      NOT AVBL
MINERAL POINT  MOCLDY    27  14  59 SE6       30.29F WCI  20
MADISON        CLOUDY    26  11  52 S8        30.32F WCI  18
6HR MIN TEMP:  23; 6HR MAX TEMP:  28;

MIDDLETON      CLOUDY    27  11  51 S6        30.32F WCI  21
WATERTOWN      MOCLDY    25  11  54 S6        30.33F WCI  18
MONROE         MOCLDY    23  18  80 SE5       30.31F WCI  17
JANESVILLE     MOCLDY    27  16  63 VRB6      30.34  WCI  20
$$

WIZ051-052-058>065-066-070>072-030100-
SOUTHEAST WISCONSIN

CITY           SKY/WX    TMP DP  RH WIND       PRES   REMARKS
MILWAUKEE      MOCLDY    26   9  48 S8        30.37F WCI  18
6HR MIN TEMP:  25; 6HR MAX TEMP:  28;

WAUKESHA       MOCLDY    25   7  46 S7        30.35F WCI  17
MILWAUKEE/TIMM CLEAR     27   9  46 S8        30.36F WCI  18
RACINE         PTCLDY    25  14  63 S8        30.38F WCI  16
6HR MIN TEMP:  25; 6HR MAX TEMP:  28;

BURLINGTON     MOCLDY    22  10  58 S3        30.36F
KENOSHA        MOCLDY    24  15  68 SE7       30.36F WCI  16
6HR MIN TEMP:  24; 6HR MAX TEMP:  28;

FOND DU LAC    MOCLDY    26  11  52 S8        30.33F WCI  18
6HR MIN TEMP:  24; 6HR MAX TEMP:  28;

SHEBOYGAN      PTCLDY    24  14  65 S8        30.35F WCI  15
6HR MIN TEMP:  24; 6HR MAX TEMP:  28;

WEST BEND      MOCLDY    27  12  54 CALM      30.35F
JUNEAU         CLOUDY    25  10  52 S7        30.34F WCI  17
$$

LSZ147-162-030100-
LAKE SUPERIOR

STATION/POSITION TIME  TEMP    WIND        PRES    WAVE
                       AIR SEA DIR/SP/G            HT/PER
                 (UTC) (F)     (DEG/KT/KT) (MB)    (FT/S)
DEVILS ISLAND    2300   26     280/  2/  2 1024.7F
PORT WING        2300   29     200/  8/ 14 1023.0
SAXON HARBOR     2300   30     200/  3/  9 1023.7F
$$

LMZ867-665-643>646-030100-
LAKE MICHIGAN

STATION/POSITION TIME  TEMP    WIND        PRES    WAVE
                       AIR SEA DIR/SP/G            HT/PER
                 (UTC) (F)     (DEG/KT/KT) (MB)    (FT/S)
NORTHPORT PIER   2300   25     170/  5/ 15 1027.4F
SISTER BAY       2343   23     190/ 10/ 12   N/A
KEWAUNEE LAKESHO 2300   25     190/ 11/ 16 1027.1F
SHEBOYGAN LAKESH 2300   25     170/ 13/ 14 1030.0F
PORT WASHINGTON  2340   27     170/ 11/ 13 1028.8F
MILWAUKEE LAKESH 2300   26     150/ 14/ 16   N/A
KENOSHA   LAKESH 2300   26     150/  8/ 10 1029.1F
$$

TC  - TEMPERATURE IN CELSIUS
VSB - VISIBILITY IN STATUTE MILES
WCI - WIND CHILL INDEX
HX  - HEAT INDEX



USA.gov is the U.S. government's official web portal to all federal, state and local government web resources and services.